星链-2299 (STARLINK-2299 )

导读

STARLINK-2299是美国SpaceX公司星链星座的卫星,于2021年3月24日发射。作为Starlink V1.0批次成员,它运行在低地球轨道,属于第一代星链网络,单颗重约227公斤,配备氪离子霍尔推进器,支持Ku/Ka波段通信,具备自主轨道调整和避碰能力。星链星座旨在实现全球覆盖的高速卫星互联网,该卫星设计寿命约5-7年,退役后会主动离轨再入大气层烧毁,减少空间碎片影响,支撑SpaceX近地轨道通信网络的部署。

基本信息
目录编号:
48029
目录名称:
STARLINK-2299
国际标识:
2021-024BE
轨道中心:
EARTH
卫星名称:
星链-2299
卫星全名:
星链-2299 (STARLINK-2299 )
卫星状态:
在轨 (已飞行1912 天)
发射日期:
2021-03-24 UTC
国别 :
美国 (US)
星等 :
--
轨道信息
数据来源 国际轨道数据
星历时间: 2026-06-18T04:00:02+0800
21小时前
查看轨道信息
半长轴: 6745.331km
偏心率: 0.0001638
轨道倾角: 53.114°
近地点辐角 74.602°
升交点赤经 215.486°
平近点角 220.835°
近地点: 366.089km
远地点: 368.299km
周期: 91.889分钟
每日圈数: 15.671043
详细信息
固有亮度:
5
最大亮度:
2.5
卫星平台:
Starlink V1.0
覆盖范围:
全球
运营商:
太空探索技术公司
运营商所在国:
美国
制造商(研发单位):
太空探索技术公司
制造商所在国:
美国
使用方式:
暂无
卫星简介
星链(Starlink)计划是由太空探索技术公司(SpaceX)提出的一个巨型低轨卫星互联网星座项目,计划在2019年至2024年间在太空搭建由约1.2万颗卫星组成的“星链”网络,其中1584颗将部署在地球上空550千米处的近地轨道,并从2020年开始工作。该卫星仍在工作。
2D轨道图
3D轨道图
轨道高度分析图
轨道倾角分析图
轨道综合分析图
查看轨道综合分析图